Printer-friendly version

IAU Minor Planet Center

Minor Planet Center

MPEC 2003-F33 : 2003 FJ1

The following Minor Planet Electronic Circular may be linked-to from your own Web pages, but must not otherwise be redistributed electronically.


Read MPEC 2003-F32 Read MPEC 2003-F34


M.P.E.C. 2003-F33                                Issued 2003 Mar. 25, 12:33 UT

     The Minor Planet Electronic Circulars contain information on unusual
         minor planets and routine data on comets.  They are published
   on behalf of Commission 20 of the International Astronomical Union by the
          Minor Planet Center, Smithsonian Astrophysical Observatory,
                          Cambridge, MA 02138, U.S.A.

             Prepared using the Tamkin Foundation Computer Network

                              MPC@CFA.HARVARD.EDU
          URL http://cfa-www.harvard.edu/iau/mpc.html  ISSN 1523-6714

                                   2003 FJ1

Observations:
     K03F01J* C2003 03 24.35243 13 44 38.99 +44 43 49.1          18.0        704
     K03F01J  C2003 03 24.36555 13 44 38.31 +44 44 47.9          18.4        704
     K03F01J  C2003 03 24.37809 13 44 37.70 +44 45 44.3          18.3        704
     K03F01J  C2003 03 24.39110 13 44 37.05 +44 46 42.8          18.5        704
     K03F01J  C2003 03 24.40371 13 44 36.52 +44 47 39.5          18.5        704
     K03F01J  C2003 03 25.05024 13 44 08.72 +45 36 26.0          17.9 R      113
     K03F01J  C2003 03 25.05157 13 44 08.68 +45 36 32.6          18.2 R      113
     K03F01J  C2003 03 25.05291 13 44 08.63 +45 36 38.4          17.7 R      113
     K03F01J  C2003 03 25.05389 13 44 08.53 +45 36 43.4                      246
     K03F01J  C2003 03 25.05444 13 44 08.51 +45 36 45.7                      246
     K03F01J  C2003 03 25.05497 13 44 08.49 +45 36 48.0                      246
     K03F01J  C2003 03 25.05550 13 44 08.47 +45 36 50.8                      246
     K03F01J  C2003 03 25.05609 13 44 08.42 +45 36 53.2                      246
     K03F01J  C2003 03 25.05624 13 44 08.44 +45 36 53.5                      557
     K03F01J  C2003 03 25.05663 13 44 08.38 +45 36 55.6                      246
     K03F01J  C2003 03 25.05764 13 44 08.32 +45 37 00.1                      557
     K03F01J  C2003 03 25.05904 13 44 08.28 +45 37 06.4          18.7 V      557
     K03F01J  C2003 03 25.07125 13 44 07.76 +45 38 02.5          18.6        026
     K03F01J  C2003 03 25.07830 13 44 07.38 +45 38 34.7          18.7        026
     K03F01J  C2003 03 25.08454 13 44 06.87 +45 39 02.5          17.8 R      118
     K03F01J  C2003 03 25.08650 13 44 06.76 +45 39 12.3                      118
     K03F01J  C2003 03 25.08752 13 44 06.74 +45 39 16.7                      118
     K03F01J  C2003 03 25.08962 13 44 06.63 +45 39 26.6                      118
     K03F01J  C2003 03 25.30067 13 43 57.99 +45 55 38.9          18.4 R      854
     K03F01J  C2003 03 25.30213 13 43 57.88 +45 55 45.4          18.5 R      854
     K03F01J  C2003 03 25.30358 13 43 57.84 +45 55 51.7          18.2 R      854
     K03F01J  C2003 03 25.30502 13 43 57.76 +45 55 58.9          18.3 R      854

Observer details:
026 Berne-Zimmerwald.  Observer M. Ploner.  0.4-m Schmidt telescope + CCD.
113 Volkssternwarte Drebach, Schoenbrunn.  Observer A. Knofel.  0.50-m f/4.0
    reflector + CCD.
118 Modra.  Observers S. Gajdos, A. Galad.  0.6-m f/5.5 reflector + CCD.
246 Klet Observatory-KLENOT.  Observer M. Tichy.  1.06-m KLENOT Telescope
    + CCD.
557 Ondrejov.  Observer L. Sarounova.  0.65-m f/3.6 reflector + CCD.
704 Lincoln Laboratory ETS, New Mexico.  Observers M. Blythe, F. Shelly,
    M. Bezpalko, R. Huber, L. Manguso, S. Adams, D. Torres, T. Brothers,
    S. Partridge.  Measurers J. Stuart, R. Sayer, J. Evans, P. Hopman.  1.0-m
    f/2.15 reflector + CCD.
854 Sabino Canyon Observatory, Tucson.  Observer J. E. McGaha.  0.30-m f/10.0
    Schmidt-Cassegrain + CCD.

Orbital elements:
2003 FJ1                                                             PHA 0.015
Epoch 2003 Mar. 22.0 TT = JDT 2452720.5                 MPC
M 333.89414              (2000.0)            P               Q
n   0.34778405     Peri.  182.41328     +0.64676370     +0.71186704
a   2.0026095      Node   128.04029     -0.69380404     +0.69821109
e   0.7947112      Incl.   20.34008     -0.31675332     -0.07580635
P   2.83           H   17.8           G   0.15
From 27 observations 2003 Mar. 24-25.

Ephemeris:
2003 FJ1                 a,e,i = 2.00, 0.79, 20                  q = 0.4111
Date    TT    R. A. (2000) Decl.     Delta      r     Elong.  Phase     V
2003 03 22    13 45.99   +41 52.8    0.544    1.418   131.8    31.6    18.6
2003 03 24    13 44.88   +44 17.4    0.524    1.393   129.9    33.3    18.5
2003 03 26    13 43.38   +46 49.6    0.506    1.367   127.7    35.2    18.4
2003 03 28    13 41.42   +49 29.2    0.489    1.341   125.3    37.4    18.4
2003 03 30    13 38.88   +52 15.9    0.473    1.314   122.5    39.9    18.3
2003 04 01    13 35.63   +55 09.6    0.458    1.288   119.4    42.5    18.3
2003 04 03    13 31.48   +58 09.6    0.445    1.261   116.2    45.4    18.3
2003 04 05    13 26.13   +61 15.2    0.433    1.233   112.6    48.5    18.3
2003 04 07    13 19.15   +64 25.6    0.422    1.206   108.9    51.7    18.2
2003 04 09    13 09.83   +67 39.6    0.413    1.178   105.0    55.2    18.2
2003 04 11    12 57.0    +70 55.4    0.405    1.150   100.9    58.8    18.3
2003 04 13    12 38.5    +74 10.2    0.398    1.121    96.7    62.6    18.3
2003 04 15    12 10.3    +77 19.3    0.392    1.092    92.4    66.6    18.3
2003 04 17    11 23.9    +80 12.4    0.388    1.063    87.9    70.7    18.4
2003 04 19    10 04.7    +82 25.5    0.385    1.033    83.4    74.9    18.4
2003 04 21    08 06.5    +83 12.8    0.383    1.004    78.8    79.2    18.5
2003 04 23    06 13.0    +82 05.0    0.382    0.973    74.2    83.6    18.6
2003 04 25    04 59.9    +79 37.2    0.383    0.943    69.5    88.1    18.7
2003 04 27    04 17.0    +76 31.5    0.384    0.912    64.9    92.7    18.8
2003 04 29    03 50.4    +73 08.4    0.387    0.881    60.2    97.4    19.0
2003 05 01    03 32.57   +69 36.4    0.391    0.850    55.6   102.1    19.1

Brian G. Marsden             (C) Copyright 2003 MPC           M.P.E.C. 2003-F33

Read MPEC 2003-F32 Read MPEC 2003-F34


Our Web policy. Index to the CBAT/MPC/ICQ pages.


Valid HTML 4.01!